Weather History for Imperial, NE

Change the Weather History Date:

Friday, February 10, 2012

  Actual Average Record
Temperature  
Mean Temperature 16 °F 30 °F  
Max Temperature 23 °F 43 °F 78 °F (1962)
Min Temperature 9 °F 18 °F -12 °F (1895)
Degree Days  
Heating Degree Days 49 35  
Month to date heating degree days 385 354  
Cooling Degree Days 0 0  
Month to date cooling degree days 0 0  
Year to date cooling degree days 0 0  
Moisture  
Dew Point 13 °F    
Average Humidity 73    
Maximum Humidity 84    
Minimum Humidity 61    
Precipitation  
Precipitation T in 0.02 in 0.64 in (1993)
Sea Level Pressure  
Sea Level Pressure 30.37 in    
Wind  
Wind Speed 10 mph (NNE)    
Max Wind Speed 18 mph    
Max Gust Speed 23 mph    
Visibility 6 miles    
Events Snow    
T = Trace of Precipitation, MM = Missing Value Source: NWS Daily Summary

Daily Weather History Graph

Daily Weather History Graph

Search for Another Location

Airport:

Trip Planner

Search our weather history database for the weather conditions in past years. The results will help you decide how hot, cold, wet, or windy it might be!

Date:

Astronomy

Feb. 10, 2012 Rise Set
Actual Time 6:46 AM MST 5:15 PM MST
Civil Twilight 6:18 AM MST 5:43 PM MST
Nautical Twilight 5:46 AM MST 6:15 PM MST
Astronomical Twilight 5:14 AM MST 6:47 PM MST
Moon 8:56 PM MST (2/10) 7:55 AM MST (2/10)
Length of Visible Light 11h 24m
Length of Day
10h 28m
Waning Gibbous, 89% of the Moon is Illuminated
Feb 10
Waning Gibbous
Feb 14
Last Quarter
Feb 21
New
Feb 29
First Quarter
Mar 8
Full

Hourly Weather History & Observations

Time (MST) Temp. Windchill Dew Point Humidity Pressure Visibility Wind Dir Wind Speed Gust Speed Precip Events Conditions
12:53 AM 21.0 °F 11.4 °F 12.9 °F 71% 30.27 in 10.0 mi NNW 8.1 mph - N/A   Clear
1:53 AM 18.0 °F 9.8 °F 12.0 °F 78% 30.28 in 10.0 mi WNW 5.8 mph - N/A   Clear
2:53 AM 18.0 °F 6.9 °F 10.9 °F 74% 30.27 in 10.0 mi NW 9.2 mph - N/A   Clear
3:53 AM 18.0 °F 6.9 °F 10.9 °F 74% 30.27 in 10.0 mi NNW 9.2 mph - N/A   Clear
4:53 AM 14.0 °F 3.9 °F 9.0 °F 80% 30.30 in 10.0 mi NNW 6.9 mph - N/A   Clear
5:53 AM 12.0 °F 4.1 °F 8.1 °F 84% 30.33 in 10.0 mi North 4.6 mph - N/A   Partly Cloudy
6:53 AM 15.1 °F 6.4 °F 10.0 °F 80% 30.35 in 10.0 mi NNW 5.8 mph - N/A   Overcast
7:53 AM 17.1 °F 5.8 °F 12.0 °F 81% 30.36 in 10.0 mi North 9.2 mph - N/A   Overcast
8:53 AM 19.0 °F 7.5 °F 12.9 °F 77% 30.38 in 10.0 mi North 10.4 mph - N/A   Overcast
9:53 AM 19.9 °F 9.3 °F 15.1 °F 81% 30.42 in 4.0 mi North 9.2 mph - N/A   Haze
10:03 AM 19.4 °F 9.5 °F 15.8 °F 86% 30.30 in 1.8 mi North 8.1 mph - 0.00 in Snow Light Snow
10:53 AM 21.0 °F 12.4 °F 16.0 °F 81% 30.44 in 1.2 mi North 6.9 mph - 0.00 in Snow Light Snow
11:04 AM 21.2 °F 12.6 °F 15.8 °F 80% 30.31 in 1.2 mi North 6.9 mph - 0.00 in Snow Light Snow
11:40 AM 21.2 °F 10.9 °F 15.8 °F 80% 30.31 in 2.0 mi North 9.2 mph - 0.00 in Snow Light Snow
11:53 AM 21.0 °F 10.6 °F 16.0 °F 81% 30.43 in 1.8 mi NNW 9.2 mph - 0.00 in Snow Light Snow
12:02 PM 21.2 °F 11.7 °F 17.6 °F 86% 30.30 in 2.0 mi North 8.1 mph - 0.00 in Snow Light Snow
12:42 PM 21.2 °F 12.6 °F 17.6 °F 86% 30.29 in 3.0 mi NNW 6.9 mph - 0.00 in   Haze
12:53 PM 21.9 °F 12.5 °F 17.1 °F 82% 30.42 in 3.0 mi NNW 8.1 mph - 0.00 in Snow Light Snow
1:00 PM 21.2 °F 11.7 °F 17.6 °F 86% 30.29 in 2.5 mi NNW 8.1 mph - 0.00 in Snow Light Snow
1:11 PM 21.2 °F 10.9 °F 17.6 °F 86% 30.28 in 2.0 mi North 9.2 mph - 0.00 in Snow Light Snow
1:18 PM 23.0 °F 13.1 °F 17.6 °F 80% 30.29 in 1.8 mi North 9.2 mph - 0.00 in Snow Light Snow
1:25 PM 21.2 °F 10.1 °F 17.6 °F 86% 30.29 in 1.5 mi NE 10.4 mph - 0.00 in Snow Light Snow
1:41 PM 21.2 °F 9.5 °F 17.6 °F 86% 30.29 in 2.5 mi NE 11.5 mph - 0.00 in Snow Light Snow
1:49 PM 21.2 °F 9.5 °F 17.6 °F 86% 30.28 in 3.0 mi NE 11.5 mph - 0.00 in Snow Light Snow
1:53 PM 21.9 °F 11.0 °F 17.1 °F 82% 30.42 in 4.0 mi NE 10.4 mph - 0.00 in   Haze
2:09 PM 21.2 °F 10.9 °F 15.8 °F 80% 30.29 in 6.0 mi NE 9.2 mph - N/A   Haze
2:53 PM 21.0 °F 10.6 °F 15.1 °F 78% 30.44 in 9.0 mi NE 9.2 mph - N/A   Mostly Cloudy
3:20 PM 21.2 °F 10.9 °F 15.8 °F 80% 30.32 in 10.0 mi NNE 9.2 mph - N/A   Overcast
3:53 PM 19.9 °F 7.3 °F 14.0 °F 78% 30.46 in 2.5 mi NNE 12.7 mph - 0.00 in Snow Light Snow
4:01 PM 19.4 °F 7.2 °F 15.8 °F 86% 30.32 in 1.8 mi NE 11.5 mph - 0.00 in Snow Light Snow
4:07 PM 19.4 °F 6.0 °F 15.8 °F 86% 30.31 in 3.0 mi NE 13.8 mph - 0.00 in Snow Light Snow
4:53 PM 19.0 °F 5.6 °F 10.9 °F 71% 30.49 in 10.0 mi NNE 13.8 mph - 0.00 in   Overcast
5:53 PM 17.1 °F 4.3 °F 9.0 °F 71% 30.53 in 10.0 mi NE 11.5 mph - N/A   Overcast
6:32 PM 15.8 °F 5.1 °F 8.6 °F 73% 30.38 in 10.0 mi NE 8.1 mph - N/A   Overcast
6:53 PM 17.1 °F 3.0 °F 8.1 °F 68% 30.55 in 10.0 mi NE 13.8 mph - N/A   Overcast
7:53 PM 16.0 °F 1.1 °F 7.0 °F 68% 30.56 in 10.0 mi NE 15.0 mph - N/A   Overcast
8:53 PM 15.1 °F 0.5 °F 5.0 °F 64% 30.58 in 10.0 mi NE 13.8 mph - N/A   Overcast
9:53 PM 12.9 °F -3.9 °F 3.9 °F 67% 30.59 in 10.0 mi ENE 17.3 mph - N/A   Overcast
10:53 PM 10.9 °F -4.7 °F 1.9 °F 67% 30.62 in 10.0 mi NE 13.8 mph - N/A   Overcast
11:53 PM 10.0 °F -3.7 °F -0.0 °F 64% 30.64 in 10.0 mi ENE 10.4 mph - N/A   Overcast